Location: Camoruquito
(9.9001°N, 67.3564°W)
Time: 14:42:58
(UTC+00:00)

Aurora 2 Rocket - Pass Details

Date: 14 April 2024
Orbit: 387 x 1634 km, 25.0° (Epoch: 28 May)

Event Time Altitude Azimuth Distance (km) Brightness Sun altitude
Exits shadow 08:00:53 52° 130° (SE) 1,270 4.1 -33.9°
Drops below altitude 10° 08:05:58 10° 79° (E) 2,471 6.5 -32.8°
Enters shadow 09:09:01 -59° 247° (WSW) 12,701 9.1 -17.8°
Maximum altitude 09:52:38 49° 335° (NNW) 1,028 3.6 -7.3°
